www.pogodaiklimat.ru

Погода и климат >> Архив погоды >> Россия >> город Санкт-Петербург >> Лисий Нос


ПОГОДА в Лисьем Носу

  • Прогноз погоды в Лисьем Носу
  • Монитор погоды в Лисьем Носу

АРХИВ ПОГОДЫ в Лисьем Носу

Время (UTC), дата Ветер
(напр.,м/с)
 
Видим.   Явления Облачность Т
(С)
Тd
(С)
f
(%)
Тe
(С)
Тes
(С)
Комфортность P
(гПа)
Po
(гПа)
Тmin
(С)
Tmax
(С)
R
(мм)
R24
(мм)
S
(см)
15 15.09 Ю 11-13
{14}
н/о н/о +11.3 +10.0 92 +7 +7 989.4 988.6
18 15.09 З 8-14
{17}
н/о в посл. час ливневой дождь 8/8 600 м
[Cb calv]
+13.2 +8.6 74 +10 +10 987.6 986.8 +13.2 9
21 15.09 З 2
{19}
н/о н/о +12.4 +8.1 75 +12 +12 987.8 986.9
00 16.09 ЮЗ 9-11
{13}
н/о н/о +11.2 +9.0 86 +7 +7 987.8 986.9
03 16.09 ЮЗ 10-13
{13}
н/о н/о +10.9 +9.2 89 +7 +7 986.9 986.0 +10.8
06 16.09 З 9-15
{15}
20 км в посл. час ливневой дождь 9/9 300 м
[Cb calv]
+11.4 +8.9 85 +8 +8 986.2 985.3 +10.8 5
09 16.09 З 4-10
{15}
н/о н/о +12.4 +7.0 70 +11 +11 986.8 985.9
12 16.09 СЗ 2
{12}
н/о н/о +11.5 +6.6 72 +10 +10 988.2 987.3
15 16.09 С 2
{10}
н/о н/о +10.2 +7.7 84 +9 +9 990.6 989.7
18 16.09 С 2 н/о 10/3 600 м
[Sc diur, vesp Ac und]
+9.5 +6.7 83 +8 +8 992.3 991.4 +12.7 0.7
21 16.09 С 2 н/о н/о +9.7 +5.9 77 +8 +8 993.0 992.1
00 17.09 С 2 н/о н/о +8.8 +6.0 83 +7 +7 993.2 992.3
03 17.09 С 1 н/о н/о +8.0 +6.1 88 +7 +7 993.3 992.4 +7.8
06 17.09 СЗ 2 20 км 10/10 540 м
[Sc]
+7.6 +5.8 88 +5 +5 993.9 993.0 +7.5
09 17.09 С 2 н/о н/о +8.5 +7.0 90 +7 +7 994.9 994.0
12 17.09 СЗ 1 н/о н/о +10.7 +6.7 76 +10 +10 995.5 994.6
15 17.09 З 4 н/о н/о +10.1 +8.3 89 +7 +7 995.8 994.9
18 17.09 СВ 1 н/о в посл. час ливневой дождь 10/8 300 м
[Cb calv Ac und]
+7.6 +7.0 96 +7 +7 996.4 995.5 +10.8 1
21 17.09 штиль 0 н/о н/о +7.0 +6.4 96 +6 +6 996.8 995.9
00 18.09 СВ 1
{13}
н/о н/о +7.0 +6.3 95 +6 +6 997.1 996.2
03 18.09 СВ 1 н/о н/о +6.7 +5.7 93 +6 +6 997.9 997.0 +6.7
06 18.09 СВ 2 20 км 9/6 600 м
[Cu Sc Ac trans]
+8.0 +6.7 91 +6 +6 999.4 998.4 +6.2
09 18.09 СВ 2 н/о н/о +10.1 +5.9 75 +9 +9 1001.3 1000.4
12 18.09 СВ 2 н/о н/о +10.9 +4.4 64 +10 +10 1002.8 1001.9
15 18.09 СВ 2 н/о н/о +9.3 +2.3 62 +8 +8 1004.7 1003.8
18 18.09 СВ 1 н/о 9/3 600 м
[Sc Ac trans]
+7.1 +3.4 77 +6 +6 1006.7 1005.8 +11.9
21 18.09 С 1 н/о н/о +5.7 +2.1 78 +5 +5 1007.9 1007.0
00 19.09 С 1 н/о н/о +2.9 +1.8 92 +1 +1 1009.0 1008.0
03 19.09 СВ 1 н/о н/о +4.8 +1.9 81 +4 +4 1009.9 1009.0 +2.3
06 19.09 СВ 1 20 км 9/1 600 м
[Cu med, cong Ac trans]
+5.8 +2.1 77 +5 +5 1011.5 1010.5 +2.3
09 19.09 СВ 1 н/о н/о +9.6 +0.1 52 +10 +10 1012.7 1011.8
12 19.09 З 1 н/о н/о +9.2 +0.5 54 +9 +9 1013.3 1012.4
15 19.09 З 3 н/о н/о +9.4 +1.7 59 +7 +7 1013.2 1012.3
18 19.09 З 3 н/о 9/0
[Ac trans]
+9.1 +2.3 62 +7 +7 1013.1 1012.1 +10.7
21 19.09 З 2 н/о н/о +8.2 +4.5 77 +6 +6 1012.7 1011.7
00 20.09 С 1
{10}
н/о н/о +5.9 +4.7 92 +5 +5 1013.1 1012.2
03 20.09 С 2 н/о н/о +3.7 +2.6 93 +1 +1 1013.3 1012.4 +3.7
06 20.09 С 2 20 км 8/8 600 м
[Sc]
+4.7 +3.0 89 +2 +2 1014.4 1013.5 +3.6 4
09 20.09 СЗ 2 н/о н/о +8.7 +2.5 65 +7 +7 1015.4 1014.5
12 20.09 З 2 н/о н/о +11.1 +0.9 49 +10 +10 1014.7 1013.7
15 20.09 З 2 н/о н/о +9.9 +1.7 57 +9 +9 1014.0 1013.1
18 20.09 ЮЗ 5
{15}
н/о 9/3 300 м
[Cb calv Ac trans]
+8.9 +3.5 69 +6 +6 1013.7 1012.8 +11.3 0.3
21 20.09 ЮЗ 6
{10}
н/о н/о +7.8 +5.0 82 +4 +4 1013.4 1012.5
00 21.09 ЮЗ 5 н/о н/о +7.6 +5.0 84 +4 +4 1012.2 1011.3
03 21.09 Ю 4 н/о н/о +6.7 +5.0 89 +3 +3 1010.5 1009.5 +6.3
06 21.09 ЮЗ 2 10 км слаб. дождь 10/5 300 м
[Frnb As op]
+6.6 +5.1 90 +4 +4 1009.4 1008.5 +6.3 0.5
09 21.09 Ю 1 н/о н/о +7.3 +6.0 91 +6 +6 1008.1 1007.2
12 21.09 В 1 н/о н/о +8.3 +6.4 88 +7 +7 1007.1 1006.2
15 21.09 штиль 0 н/о н/о +7.9 +6.5 91 +7 +7 1006.1 1005.2
18 21.09 штиль 0 н/о 9/0
[Ac trans]
+5.4 +4.8 96 +4 +4 1005.8 1004.9 +8.3 2
21 21.09 С 2 н/о н/о +6.2 +4.3 88 +4 +4 1005.8 1004.9
03 22.09 С 2 н/о н/о +4.3 +2.7 89 +1 +1 1007.6 1006.6 +4.3

 

Местоположение метеостанции Лисий Нос (город Санкт-Петербург, Россия): широта 60.02 долгота 29.98 высота над уровнем моря 9 м.

В архиве по умолчанию представлена погода в Лисьем Носу за последнюю неделю. Архивные данные за месяц целиком и за предыдущие месяцы, начиная с января 2011 года, Вы можете получить, выбрав интересующий диапазон дат из раскрывающегося списка и нажав кнопку "Ввод!".


*Определитесь, кто Вы:
робот инопланетянин человек

Внимание! Время в таблицах - всемирное. Для получения местного времени необходимо прибавить поправку, которая равна 3 ч.

Смотрите также архив погоды в соседних городах и на ближайших метеорологических станциях:

Погода в Кронштадте (город Санкт-Петербург, Россия) (13 км)
Погода в Ломоносове (город Санкт-Петербург, Россия) (16 км)
Погода в Санкт-Петербурге (город Санкт-Петербург, Россия) (19 км)
Погода в Рощино (Ленинградская область, Россия) (32 км)
Погода в Воейково (город Санкт-Петербург, Россия) (41 км)
Погода в Шепелево (Ленинградская область, Россия) (43 км)
Погода в Сосновом Бору (Ленинградская область, Россия) (50 км)
Погода в Шлиссельбурге (Ленинградская область, Россия) (58 км)
Погода в Озерках (Ленинградская область, Россия) (58 км)
Погода в Сосново (Ленинградская область, Россия) (62 км)

Пояснения к столбцам:

Ветер - указаны скорость ветра в м/с - средняя за 10 мин, порывы в срок и между сроками (в фигурных скобках) и направление, откуда дует ветер: С - северный, СВ - северо-восточный, В - восточный, ЮВ - юго-восточный, Ю - южный, ЮЗ - юго-западный, З - западный, СЗ - северо-западный.
Видимость - горизонтальная дальность видимости в метрах или километрах. При видимости от 1 до 10 км при отсутствии осадков обычно наблюдается дымка, при ухудшении видимости до 1 км и менее - туман. В сухую погоду видимость может ухудшаться дымом, пылью или мглою.
Явления - указаны атмосферные явления, наблюдавшиеся в срок или в последний час перед сроком; фигурными скобками обозначены явления, наблюдавшиеся между сроками (за 1-3 часа до срока); квадратными скобками обозначены град или гололедные отложения с указанием их диаметра в мм.
Облачность - указаны через наклонную черту общая и нижняя облачность в баллах и высота нижней границы облаков в метрах; квадратными скобками обозначены формы облаков: Ci - перистые, Cs - перисто-слоистые, Cc - перисто-кучевые, Ac - высококучевые, As - высокослоистые, Sc - слоисто-кучевые, Ns - слоисто-дождевые, Cu - кучевые, Cb - кучево-дождевые. Подробнее классификацию облаков см. в Атласе облаков (PDF).
T - Температура воздуха - температура, измеренная на высоте 2 м над землей.
Td - Температура точки росы - температура, при понижении до которой содержащийся в воздухе водяной пар достигнет насыщения.
f - Относительная влажность воздуха - влажноcть воздуха, измеренная на высоте 2 м над землей.
Te - Эффективная температура - температура, которую ощущает одетый по сезону человек в тени. Характеристика душности погоды. При расчете учитывается влияние влажности воздуха и скорости ветра на теплоощущения человека.
Tes - Эффективная температура на солнце - температура, которую ощущает человек, с поправкой на солнечный нагрев. Характеристика знойности погоды. Зависит от высоты солнца над горизонтом, облачности и скорости ветра. Ночью, в пасмурную погоду, а также при ветре 12 м/с и более поправка равна нулю.
P - Атмосферное давление - приведенное к уровню моря атмосферное давление.
Po - Атмосферное давление - измеренное на уровне метеостанции атмосферное давление.
Tmin - Минимальная температура - минимум температуры воздуха на высоте 2 м над землей.
Tmax - Максимальная температура - максимум температуры воздуха на высоте 2 м над землей.
R - Количество осадков - Количество выпавших осадков за период времени, мм. При наведении курсора мыши на число - период времени, за который выпало указанное количество осадков.
R24 - Количество осадков - Количество выпавших осадков за 24 часа, мм.
S - Снежный покров - Высота снежного покрова, см. При наведении курсора мыши на число - состояние снежного покрова и степень покрытия местности в баллах.